This is the latest recevied weather packets stored in our database for station/object KC7UNY-13. If no packets are shown the sender has not sent any weather packets the latest 10 day(s).
| Time | Temp. | Humidity | Pressure | Rain* | Wind** | Luminosity | Snow |
|---|---|---|---|---|---|---|---|
| 1777741059 | 30° C | 29% | 1014.6 hPa | 0 mm | - | 596 W/m² | - |
| 1777740756 | 29.44° C | 30% | 1014.5 hPa | 0 mm | - | 580 W/m² | - |
| 1777740452 | 29.44° C | 30% | 1014.6 hPa | 0 mm | - | 567 W/m² | - |
| 1777740151 | 30° C | 30% | 1014.7 hPa | 0 mm | - | 553 W/m² | - |
| 1777739846 | 29.44° C | 31% | 1014.7 hPa | 0 mm | - | 538 W/m² | - |
| 1777739543 | 29.44° C | 30% | 1014.7 hPa | 0 mm | - | 524 W/m² | - |
| 1777739240 | 28.89° C | 31% | 1014.5 hPa | 0 mm | - | 509 W/m² | - |
| 1777738936 | 28.89° C | 31% | 1014.7 hPa | 0 mm | - | 494 W/m² | - |
| 1777738634 | 28.33° C | 32% | 1014.5 hPa | 0 mm | - | 478 W/m² | - |
| 1777738330 | 28.33° C | 32% | 1014.5 hPa | 0 mm | - | 466 W/m² | - |
| 1777738028 | 28.89° C | 31% | 1014.6 hPa | 0 mm | - | 449 W/m² | - |
| 1777737727 | 28.33° C | 32% | 1014.4 hPa | 0 mm | - | 433 W/m² | - |
| 1777737425 | 28.33° C | 33% | 1014.5 hPa | 0 mm | - | 417 W/m² | - |
| 1777737122 | 28.33° C | 32% | 1014.3 hPa | 0 mm | - | 399 W/m² | - |
| 1777736818 | 28.33° C | 32% | 1014.5 hPa | 0 mm | - | 380 W/m² | - |
| 1777736189 | 27.78° C | 32% | 1014.4 hPa | 0 mm | - | 348 W/m² | - |
| 1777735886 | 27.22° C | 32% | 1014.4 hPa | 0 mm | - | 332 W/m² | - |
| 1777735584 | 27.22° C | 33% | 1014.1 hPa | 0 mm | - | 319 W/m² | - |
| 1777735281 | 27.78° C | 33% | 1014.2 hPa | 0 mm | - | 300 W/m² | - |
| 1777734978 | 27.22° C | 33% | 1014.1 hPa | 0 mm | - | 285 W/m² | - |
| 1777734676 | 26.67° C | 34% | 1014.1 hPa | 0 mm | - | 270 W/m² | - |
| 1777734373 | 26.67° C | 34% | 1014.1 hPa | 0 mm | - | 255 W/m² | - |
| 1777734069 | 27.22° C | 34% | 1014 hPa | 0 mm | - | 241 W/m² | - |
| 1777733766 | 26.67° C | 35% | 1013.8 hPa | 0 mm | - | 227 W/m² | - |
| 1777733463 | 26.67° C | 35% | 1013.7 hPa | 0 mm | - | 213 W/m² | - |
* Rain latest hour (hover to see other rain measurements)
** Current wind speed in m/s (hover to see current wind gust speed)